Regional Weather Roundup
Issued by NWS

Home | Current Version | Previous Version | Text Only | Print | Product List | Glossary Off
Versions: 1 2 3 4 5 6 7 8 9 10 11 12 13 14 15 16 17 18 19 20 21 22 23 24 25 26 27 28 29 30 31 32 33 34 35 36 37 38 39 40 41 42 43 44 45 46 47 48 49 50

000
ASUS43 KDMX 290707
RWRIA

WEATHER ROUNDUP FOR IOWA
NATIONAL WEATHER SERVICE DES MOINES IA
200 AM CDT FRI AUG 29 2014

NOTE: "FAIR" INDICATES FEW OR NO CLOUDS BELOW 12,000 FEET WITH NO
SIGNIFICANT WEATHER AND/OR OBSTRUCTIONS TO VISIBILITY.

* - THESE STATIONS ARE NOT NWS STATIONS...THUS NOT UNDER NWS
QUALITY CONTROL.  THEY ALSO DO NOT REPORT WEATHER SUCH
AS PRECIPITATION OR FOG.

IAZ001>003-012>014-020>022-031>034-043>046-290800-
   NORTHWEST IOWA

CITY           SKY/WX    TMP DP  RH WIND       PRES   REMARKS
CARROLL *      CLOUDY    68  66  94 SE6       29.86F
DENISON *      MOCLDY    70  66  88 SE12      29.83S
LE MARS *      PTCLDY    72  72 100 CALM      29.81F
ORANGE CITY *  PTCLDY    72  70  94 SE5       29.82S FOG
SHELDON *      MOCLDY    72  72 100 SE12      29.81F FOG
SIOUX CITY     MOCLDY    73  71  93 SE8       29.80S FOG
SPENCER        CLOUDY    72  70  93 S12       29.84S
STORM LAKE *   PTCLDY    68  68 100 S13G18    29.85F
$$

IAZ055>058-069>071-079>083-090>094-290800-
   SOUTHWEST IOWA

CITY           SKY/WX    TMP DP  RH WIND       PRES   REMARKS
ATLANTIC *     CLOUDY    70  66  88 N6        29.86S
AUDUBON *      RAIN      72  66  83 W7        29.89R
CLARINDA *     CLEAR     73  72  94 CALM      29.87F
COUNCIL BLFS * LGT RAIN  73  73 100 E10       29.83F
CRESTON *      CLEAR     66  66 100 E10G18    29.89F
HARLAN  *      LGT RAIN  70  68  94 S6        29.90S
RED OAK *        N/A     72  70  94 E9G15     29.85F
SHENANDOAH *   PTCLDY    73  72  94 E6        29.84F
$$

IAZ047>049-059>061-072>074-084-290800-
   CENTRAL IOWA

CITY           SKY/WX    TMP DP  RH WIND       PRES   REMARKS
AMES           RAIN      68  67  96 S7        29.92F FOG
ANKENY *       LGT RAIN  68  68 100 N5        29.90F
CHARITON *     CLOUDY    72  68  88 N12       29.93F
DES MOINES     LGT RAIN  69  66  90 NE8       29.88F
GRINNELL*      CLOUDY    70  66  88 SW10      29.97R
KNOXVILLE *    CLOUDY    72  66  83 NW13G20   29.93S
MARSHALLTOWN   TSTM      68  67  96 SE7       29.94R FOG
PELLA *        CLOUDY    72  70  94 NW14      29.95R
PERRY *        CLOUDY    68  66  94 E6        29.87F
$$

IAZ004>006-015-016-023>025-035-036-290800-
   NORTH CENTRAL IOWA

CITY           SKY/WX    TMP DP  RH WIND       PRES   REMARKS
ALGONA *       CLOUDY    70  70 100 S16G23    29.86F
CLARION *      LGT RAIN  68  68 100 S9        29.90F
ESTHERVILLE    CLOUDY    71  70  96 S13       29.85S FOG
FORT DODGE *   CLOUDY    68  66  94 S8        29.89S
MASON CITY     LGT RAIN  69  69 100 S13       29.90F
FOREST CITY *  LGT RAIN  70  70 100 S10G17    29.88F
IOWA FALLS *   RAIN      68  66  94 SE6       29.93F
$$

IAZ007>011-017>019-026>030-037>042-050>054-066-290800-
   NORTHEAST IOWA

CITY           SKY/WX    TMP DP  RH WIND       PRES   REMARKS
CEDAR RAPIDS   CLEAR     68  68 100 SE8       29.92F FOG
CHARLES CITY * RAIN      70  68  94 S13       29.91F
CLINTON *      CLEAR     68  64  88 SE8       29.97F
DECORAH *      CLOUDY    68  66  94 VRB7G14   29.91F
DUBUQUE        PTCLDY    66  65  96 S8        29.96F
MONTICELLO *   MOCLDY    68  68 100 SE5       29.94F
OELWEIN *      CLOUDY    68  68 100 SW16      29.97R FOG
WATERLOO       RAIN      69  67  93 S10       29.92F FOG
$$

IAZ064-065-067-068-078-290800-
   EAST CENTRAL IOWA

CITY           SKY/WX    TMP DP  RH WIND       PRES   REMARKS
DAVENPORT      PTCLDY    69  67  93 S8        29.95F
IOWA CITY      CLEAR     67  67 100 SE5       29.94F
MT. PLEASANT * PTCLDY    70  68  94 SE7       29.93F
MUSCATINE *    CLEAR     72  68  88 SE5       29.93F
QUAD CITIES    MOCLDY    70  68  93 CALM      29.94F
$$

IAZ062-063-075>077-085>089-095>099-290800-
   SOUTHEAST IOWA

CITY           SKY/WX    TMP DP  RH WIND       PRES   REMARKS
BURLINGTON     PTCLDY    72  69  90 SE9       29.94F
FAIRFIELD *    PTCLDY    70  68  94 SE9       29.93S
FORT MADISON * CLEAR     72  70  94 SE3       29.95F
KEOKUK *       PTCLDY    72  70  94 VRB6G14   29.93F
OSKALOOSA *      N/A     68  68 100 SE9       29.91F
CENTERVILLE *  CLEAR     68  68 100 SE6       29.92F
OTTUMWA        CLEAR     69  67  93 SE9       29.91F
WASHINGTON *   PTCLDY    70  70 100 S6        29.93F
$$

ABBREVIATIONS USED IN REMARKS
   TC - TEMPERATURES IN CELSIUS
  WCI - WIND CHILL INDEX
   HX - HEAT INDEX
  VSB - VISIBILITY
$$



USA.gov is the U.S. government's official web portal to all federal, state and local government web resources and services.